Location: Vancouver
(49.2500°N, 123.1330°W)
Time: 02:35:20
(UTC-08:00)

Transit 2A Rocket - Visible Passes

Search period start: 22 December 2014 00:00
Search period end: 01 January 2015 00:00
Orbit: 587 x 921 km, 66.7° (Epoch: 20 December)

Date Brightness Start Highest point End Pass type
(mag) Time Alt. Az. Time Alt. Az. Time Alt. Az.
22 Dec 6.8 05:02:21 21° N 05:02:21 21° N 05:04:40 10° NNE visible
22 Dec 6.9 06:42:18 12° NW 06:44:25 14° N 06:47:25 10° NNE visible
23 Dec 7.4 04:21:41 16° NNE 04:21:41 16° NNE 04:22:51 10° NNE visible
23 Dec 6.8 06:01:38 16° NNW 06:01:55 16° NNW 06:05:22 10° NNE visible
24 Dec 7.9 03:41:00 10° NNE 03:41:00 10° NNE 03:41:01 10° NNE visible
24 Dec 7.0 05:20:57 18° N 05:20:57 18° N 05:23:28 10° NNE visible
24 Dec 7.1 07:01:45 10° NNW 07:04:26 13° N 07:07:12 10° NNE visible
25 Dec 7.3 04:40:14 15° NNE 04:40:14 15° NNE 04:41:37 10° NNE visible
25 Dec 7.1 06:20:11 12° NNW 06:21:52 14° N 06:24:42 10° NNE visible
26 Dec 7.8 03:59:29 11° NNE 03:59:29 11° NNE 03:59:48 10° NNE visible
26 Dec 7.1 05:39:26 15° N 05:39:26 15° N 05:42:29 10° NNE visible
26 Dec 7.2 07:21:08 10° NNW 07:24:26 15° NNE 07:27:51 10° NE visible
27 Dec 7.3 04:58:41 15° N 04:58:41 15° N 05:00:28 10° NNE visible
27 Dec 7.2 06:38:59 10° NNW 06:41:53 14° N 06:44:53 10° NE visible
28 Dec 7.6 04:17:54 12° NNE 04:17:54 12° NNE 04:18:34 10° NNE visible
28 Dec 7.2 05:57:51 12° NNW 05:59:19 14° N 06:02:08 10° NNE visible
29 Dec 7.3 05:17:04 14° N 05:17:04 14° N 05:19:42 10° NNE visible
29 Dec 7.2 06:58:06 10° NNW 07:01:50 17° NNE 07:05:41 10° ENE visible
30 Dec 7.5 04:36:16 13° N 04:36:16 13° N 04:37:32 10° NNE visible
30 Dec 7.3 06:16:13 10° NNW 06:19:19 15° NNE 06:22:39 10° NE visible
31 Dec 7.9 03:55:28 10° NNE 03:55:28 10° NNE 03:55:32 10° NNE visible
31 Dec 7.3 05:35:24 13° N 05:36:45 14° N 05:39:43 10° NE visible
31 Dec 6.9 07:16:51 10° NNW 07:21:34 24° NNE 07:26:27 10° E visible
